AXB1214 VAPO-VOHS

Flight info

Callsign AXB1214
Flight time 1h 6m
Altitude 35000
Route LUKTI2A LUKTI W28 PONIP DCT GGB
Aircraft B738/M-SDE2E3FGHIRWXY/LB1

Departure

Time 2026-04-21 16:23
Airport Pune International Airport (VAPO)

Arrival

Time 2026-04-21 17:29
Airport Rajiv Gandhi International Airport (VOHS)
Time Latitude Longitude Altitude Speed Heading
2026-04-21 16:14 18.58008 73.90762 1917 ft 0 kts 186°
2026-04-21 16:18 18.58019 73.90764 1917 ft 2 kts 192°
2026-04-21 16:18 18.58024 73.90765 1917 ft 2 kts 187°
2026-04-21 16:18 18.58034 73.90766 1917 ft 2 kts 206°
2026-04-21 16:19 18.58045 73.90776 1917 ft 2 kts 232°
2026-04-21 16:19 18.58052 73.90791 1917 ft 2 kts 259°
2026-04-21 16:19 18.58053 73.90801 1918 ft 0 kts 276°
2026-04-21 16:19 18.58052 73.90808 1918 ft 0 kts 278°
2026-04-21 16:21 18.58052 73.90807 1918 ft 1 kts 276°
2026-04-21 16:21 18.58075 73.90780 1917 ft 8 kts 356°
2026-04-21 16:21 18.58142 73.90733 1914 ft 18 kts 283°
2026-04-21 16:21 18.58177 73.90659 1912 ft 6 kts 346°
2026-04-21 16:22 18.58208 73.90657 1912 ft 0 kts
2026-04-21 16:22 18.58275 73.90665 1912 ft 23 kts 26°
2026-04-21 16:22 18.58298 73.90836 1916 ft 33 kts 95°
2026-04-21 16:22 18.58260 73.91400 1937 ft 119 kts 93°
2026-04-21 16:23 18.58196 73.92522 1943 ft 185 kts 93°
2026-04-21 16:23 18.58116 73.93931 2652 ft 201 kts 93°
2026-04-21 16:23 18.58016 73.95530 3123 ft 242 kts 94°
2026-04-21 16:23 18.57861 73.97499 3531 ft 284 kts 95°
2026-04-21 16:24 18.57671 73.99454 5162 ft 267 kts 99°
2026-04-21 16:24 18.57038 74.01184 6646 ft 253 kts 120°
2026-04-21 16:24 18.56183 74.02700 7786 ft 252 kts 118°
2026-04-21 16:24 18.55340 74.04391 8250 ft 278 kts 116°
2026-04-21 16:25 18.54446 74.06265 9148 ft 286 kts 116°
2026-04-21 16:25 18.53557 74.08126 10024 ft 294 kts 116°
2026-04-21 16:25 18.52643 74.10052 11014 ft 297 kts 116°
2026-04-21 16:25 18.51711 74.12023 11946 ft 301 kts 116°
2026-04-21 16:26 18.50786 74.13980 12847 ft 305 kts 116°
2026-04-21 16:26 18.49824 74.16015 13068 ft 323 kts 116°
2026-04-21 16:26 18.48780 74.18224 13464 ft 343 kts 116°
2026-04-21 16:26 18.47693 74.20526 13722 ft 364 kts 116°
2026-04-21 16:27 18.46552 74.22937 14489 ft 368 kts 116°
2026-04-21 16:27 18.45420 74.25329 15130 ft 375 kts 116°
2026-04-21 16:27 18.44233 74.27838 15913 ft 378 kts 116°
2026-04-21 16:27 18.43066 74.30302 16615 ft 382 kts 116°
2026-04-21 16:28 18.41871 74.32825 17312 ft 386 kts 116°
2026-04-21 16:28 18.40672 74.35355 17989 ft 389 kts 116°
2026-04-21 16:28 18.39453 74.37928 18650 ft 392 kts 116°
2026-04-21 16:28 18.38245 74.40475 19280 ft 395 kts 116°
2026-04-21 16:29 18.37407 74.42242 19702 ft 398 kts 116°
2026-04-21 16:29 18.35761 74.45711 20502 ft 402 kts 116°
2026-04-21 16:29 18.34502 74.48363 21082 ft 405 kts 116°
2026-04-21 16:29 18.33241 74.51016 21641 ft 408 kts 116°
2026-04-21 16:30 18.31958 74.53717 22185 ft 411 kts 116°
2026-04-21 16:30 18.30681 74.56402 22701 ft 414 kts 116°
2026-04-21 16:30 18.29367 74.59164 23211 ft 417 kts 116°
2026-04-21 16:30 18.28081 74.61868 23694 ft 420 kts 116°
2026-04-21 16:31 18.26752 74.64660 24174 ft 423 kts 116°
2026-04-21 16:31 18.25436 74.67423 24642 ft 425 kts 116°
2026-04-21 16:31 18.24104 74.70219 25102 ft 428 kts 116°
2026-04-21 16:31 18.22817 74.73070 25552 ft 430 kts 114°
2026-04-21 16:32 18.21610 74.75912 26154 ft 428 kts 114°
2026-04-21 16:32 18.20402 74.78751 26771 ft 426 kts 114°
2026-04-21 16:32 18.19169 74.81609 27328 ft 425 kts 114°
2026-04-21 16:32 18.17951 74.84423 27914 ft 423 kts 114°
2026-04-21 16:33 18.16745 74.87211 28469 ft 421 kts 114°
2026-04-21 16:33 18.15528 74.90023 29010 ft 420 kts 115°
2026-04-21 16:33 18.14328 74.92795 29520 ft 419 kts 115°
2026-04-21 16:33 18.13119 74.95583 30022 ft 417 kts 115°
2026-04-21 16:34 18.11937 74.98305 30497 ft 417 kts 115°
2026-04-21 16:34 18.10742 75.01059 30966 ft 416 kts 115°
2026-04-21 16:34 18.09575 75.03745 31412 ft 415 kts 115°
2026-04-21 16:34 18.08385 75.06483 31857 ft 414 kts 115°
2026-04-21 16:35 18.07199 75.09210 32291 ft 413 kts 115°
2026-04-21 16:35 18.06005 75.11952 32686 ft 414 kts 115°
2026-04-21 16:35 18.04795 75.14732 32748 ft 422 kts 115°
2026-04-21 16:36 18.02305 75.20446 32854 ft 439 kts 115°
2026-04-21 16:36 17.99762 75.26276 32953 ft 453 kts 115°
2026-04-21 16:37 17.97129 75.32310 33348 ft 458 kts 115°
2026-04-21 16:37 17.95803 75.35345 33818 ft 454 kts 115°
2026-04-21 16:37 17.94483 75.38365 34107 ft 455 kts 115°
2026-04-21 16:37 17.93168 75.41372 34458 ft 453 kts 115°
2026-04-21 16:38 17.91859 75.44366 34819 ft 452 kts 115°
2026-04-21 16:38 17.89222 75.50386 34914 ft 463 kts 115°
2026-04-21 16:39 17.86518 75.56554 34911 ft 465 kts 115°
2026-04-21 16:39 17.83826 75.62689 34911 ft 462 kts 115°
2026-04-21 16:40 17.81124 75.68841 34912 ft 462 kts 115°
2026-04-21 16:40 17.78441 75.74944 34912 ft 463 kts 115°
2026-04-21 16:41 17.76201 75.80034 34912 ft 463 kts 115°
2026-04-21 16:41 17.73216 75.87270 34911 ft 463 kts 108°
2026-04-21 16:42 17.71676 75.93800 34912 ft 464 kts 104°
2026-04-21 16:42 17.70095 76.00313 34912 ft 464 kts 105°
2026-04-21 16:43 17.68487 76.06862 34911 ft 464 kts 105°
2026-04-21 16:43 17.66886 76.13387 34927 ft 464 kts 105°
2026-04-21 16:44 17.65247 76.20044 34949 ft 473 kts 105°
2026-04-21 16:44 17.63591 76.26755 34972 ft 481 kts 105°
2026-04-21 16:45 17.61907 76.33571 34992 ft 485 kts 105°
2026-04-21 16:45 17.60338 76.40300 34992 ft 487 kts 103°
2026-04-21 16:46 17.58940 76.47160 34993 ft 488 kts 103°
2026-04-21 16:46 17.57479 76.54076 34992 ft 489 kts 103°
2026-04-21 16:47 17.56005 76.61018 34992 ft 489 kts 103°
2026-04-21 16:47 17.54527 76.67954 34992 ft 489 kts 103°
2026-04-21 16:48 17.53038 76.74912 34993 ft 489 kts 103°
2026-04-21 16:48 17.51548 76.81858 34993 ft 489 kts 103°
2026-04-21 16:49 17.50063 76.88768 34992 ft 489 kts 103°
2026-04-21 16:49 17.48575 76.95676 34993 ft 490 kts 102°
2026-04-21 16:50 17.47081 77.02602 34993 ft 493 kts 102°
2026-04-21 16:50 17.45563 77.09624 34993 ft 495 kts 102°
2026-04-21 16:51 17.44046 77.16629 34987 ft 494 kts 102°
2026-04-21 16:51 17.43291 77.20109 34854 ft 487 kts 102°
2026-04-21 16:51 17.42541 77.23564 34771 ft 480 kts 102°
2026-04-21 16:51 17.41808 77.26937 34668 ft 475 kts 102°
2026-04-21 16:52 17.41089 77.30244 34218 ft 457 kts 102°
2026-04-21 16:52 17.40393 77.33437 32843 ft 457 kts 102°
2026-04-21 16:52 17.39687 77.36685 30514 ft 475 kts 102°
2026-04-21 16:52 17.38959 77.40029 28245 ft 485 kts 102°
2026-04-21 16:53 17.38228 77.43381 25794 ft 494 kts 102°
2026-04-21 16:53 17.37470 77.46851 23229 ft 496 kts 102°
2026-04-21 16:53 17.36731 77.50230 21946 ft 472 kts 102°
2026-04-21 16:53 17.36027 77.53448 20312 ft 461 kts 102°
2026-04-21 16:54 17.35332 77.56620 18577 ft 451 kts 102°
2026-04-21 16:54 17.34654 77.59717 16977 ft 439 kts 102°
2026-04-21 16:54 17.33979 77.62796 15374 ft 427 kts 102°
2026-04-21 16:54 17.33341 77.65699 15040 ft 388 kts 102°
2026-04-21 16:55 17.32772 77.68284 14811 ft 356 kts 102°
2026-04-21 16:55 17.32219 77.70807 13112 ft 370 kts 102°
2026-04-21 16:55 17.31647 77.73413 11487 ft 375 kts 102°
2026-04-21 16:55 17.31078 77.75995 11009 ft 346 kts 102°
2026-04-21 16:56 17.30567 77.78311 10984 ft 312 kts 102°
2026-04-21 16:56 17.30097 77.80447 11010 ft 308 kts 102°
2026-04-21 16:56 17.29599 77.82722 10994 ft 339 kts 102°
2026-04-21 16:56 17.29054 77.85200 10991 ft 357 kts 102°
2026-04-21 16:57 17.28488 77.87761 10990 ft 359 kts 102°
2026-04-21 16:57 17.27927 77.90298 10991 ft 359 kts 102°
2026-04-21 16:57 17.27361 77.92862 10992 ft 359 kts 102°
2026-04-21 16:57 17.26797 77.95412 10992 ft 359 kts 102°
2026-04-21 16:58 17.26235 77.97953 10993 ft 359 kts 102°
2026-04-21 16:58 17.25668 78.00514 10993 ft 359 kts 102°
2026-04-21 16:58 17.25105 78.03059 10960 ft 355 kts 102°
2026-04-21 16:58 17.24560 78.05514 10412 ft 349 kts 102°
2026-04-21 16:59 17.24013 78.07984 9610 ft 349 kts 102°
2026-04-21 16:59 17.23479 78.10385 9516 ft 329 kts 102°
2026-04-21 16:59 17.22971 78.12672 9419 ft 311 kts 102°
2026-04-21 16:59 17.22497 78.14806 9220 ft 300 kts 102°
2026-04-21 17:00 17.22042 78.16856 8833 ft 296 kts 102°
2026-04-21 17:00 17.21583 78.18924 8515 ft 290 kts 102°
2026-04-21 17:00 17.21277 78.20297 8504 ft 289 kts 102°
2026-04-21 17:00 17.20665 78.23051 8493 ft 294 kts 102°
2026-04-21 17:01 17.20200 78.25139 8492 ft 294 kts 102°
2026-04-21 17:01 17.19737 78.27219 8492 ft 294 kts 102°
2026-04-21 17:01 17.19275 78.29289 8492 ft 294 kts 102°
2026-04-21 17:01 17.18809 78.31381 8493 ft 294 kts 102°
2026-04-21 17:02 17.18343 78.33467 8488 ft 288 kts 102°
2026-04-21 17:02 17.17899 78.35452 8492 ft 271 kts 102°
2026-04-21 17:02 17.17476 78.37350 8494 ft 269 kts 102°
2026-04-21 17:02 17.17054 78.39238 8396 ft 266 kts 102°
2026-04-21 17:03 17.16627 78.41148 7926 ft 270 kts 102°
2026-04-21 17:03 17.16204 78.43041 7625 ft 266 kts 102°
2026-04-21 17:03 17.15789 78.44893 7530 ft 254 kts 102°
2026-04-21 17:03 17.15397 78.46646 7297 ft 249 kts 102°
2026-04-21 17:04 17.15004 78.48399 7138 ft 238 kts 102°
2026-04-21 17:04 17.14642 78.50034 7052 ft 228 kts 99°
2026-04-21 17:04 17.14636 78.51633 6926 ft 215 kts 71°
2026-04-21 17:04 17.15385 78.52928 6689 ft 206 kts 36°
2026-04-21 17:05 17.16652 78.53490 6423 ft 201 kts
2026-04-21 17:05 17.17968 78.53140 6138 ft 200 kts 325°
2026-04-21 17:05 17.18814 78.52011 5890 ft 198 kts 286°
2026-04-21 17:05 17.18915 78.50592 5923 ft 201 kts 269°
2026-04-21 17:06 17.18830 78.49129 5878 ft 202 kts 259°
2026-04-21 17:06 17.18228 78.47797 5882 ft 204 kts 225°
2026-04-21 17:06 17.17022 78.47078 5884 ft 206 kts 189°
2026-04-21 17:06 17.15610 78.47233 5885 ft 206 kts 153°
2026-04-21 17:07 17.14855 78.47804 5885 ft 205 kts 129°
2026-04-21 17:07 17.14251 78.49617 5901 ft 202 kts 89°
2026-04-21 17:07 17.14246 78.51100 5875 ft 202 kts 89°
2026-04-21 17:07 17.14233 78.52562 5879 ft 202 kts 89°
2026-04-21 17:08 17.14219 78.54021 5880 ft 199 kts 89°
2026-04-21 17:08 17.14205 78.55432 5898 ft 196 kts 89°
2026-04-21 17:08 17.14191 78.56883 5875 ft 199 kts 89°
2026-04-21 17:08 17.14177 78.58273 5886 ft 182 kts 89°
2026-04-21 17:09 17.14147 78.60873 5868 ft 177 kts 89°
2026-04-21 17:09 17.14255 78.62138 5564 ft 177 kts 76°
2026-04-21 17:09 17.14672 78.63351 5244 ft 175 kts 60°
2026-04-21 17:10 17.15369 78.64377 4863 ft 175 kts 44°
2026-04-21 17:10 17.16305 78.65149 4630 ft 165 kts 28°
2026-04-21 17:10 17.17333 78.65572 4390 ft 156 kts 11°
2026-04-21 17:10 17.18381 78.65642 4101 ft 150 kts 353°
2026-04-21 17:11 17.19379 78.65372 3716 ft 151 kts 335°
2026-04-21 17:11 17.20241 78.64774 3425 ft 146 kts 315°
2026-04-21 17:11 17.20796 78.64011 3579 ft 150 kts 300°
2026-04-21 17:11 17.21328 78.62983 3552 ft 164 kts 300°
2026-04-21 17:12 17.21851 78.61976 3484 ft 157 kts 300°
2026-04-21 17:12 17.22379 78.60962 3473 ft 160 kts 300°
2026-04-21 17:12 17.22909 78.59936 3479 ft 160 kts 294°
2026-04-21 17:12 17.23195 78.58806 3481 ft 161 kts 277°
2026-04-21 17:13 17.23158 78.57639 3479 ft 162 kts 263°
2026-04-21 17:13 17.23085 78.56757 3484 ft 162 kts 269°
2026-04-21 17:13 17.23055 78.55575 3485 ft 161 kts 270°
2026-04-21 17:13 17.23036 78.54412 3488 ft 161 kts 270°
2026-04-21 17:14 17.23020 78.53232 3482 ft 162 kts 270°
2026-04-21 17:14 17.23004 78.52044 3352 ft 165 kts 270°
2026-04-21 17:14 17.22988 78.50866 3137 ft 160 kts 270°
2026-04-21 17:14 17.22973 78.49758 2899 ft 148 kts 270°
2026-04-21 17:15 17.22959 78.48687 2716 ft 147 kts 270°
2026-04-21 17:15 17.22945 78.47623 2522 ft 147 kts 270°
2026-04-21 17:15 17.22930 78.46568 2327 ft 146 kts 270°
2026-04-21 17:15 17.22912 78.45149 2074 ft 146 kts 270°
2026-04-21 17:16 17.22896 78.44456 2049 ft 139 kts 270°
2026-04-21 17:16 17.22880 78.43416 2025 ft 144 kts 272°
2026-04-21 17:16 17.22874 78.42352 2133 ft 158 kts 270°
2026-04-21 17:16 17.22831 78.41132 2586 ft 181 kts 268°
2026-04-21 17:17 17.22739 78.39819 3270 ft 186 kts 266°
2026-04-21 17:17 17.22616 78.38482 3309 ft 179 kts 265°
2026-04-21 17:17 17.22479 78.37268 3358 ft 161 kts 262°
2026-04-21 17:17 17.22169 78.36107 3541 ft 179 kts 246°
2026-04-21 17:18 17.21504 78.34956 4136 ft 195 kts 232°
2026-04-21 17:18 17.20500 78.33894 4611 ft 219 kts 219°
2026-04-21 17:18 17.19162 78.33003 5330 ft 239 kts 206°
2026-04-21 17:18 17.17609 78.32377 5938 ft 244 kts 196°
2026-04-21 17:19 17.15950 78.32046 5878 ft 239 kts 184°
2026-04-21 17:19 17.14306 78.32038 5885 ft 237 kts 175°
2026-04-21 17:19 17.12673 78.32329 5889 ft 243 kts 163°
2026-04-21 17:19 17.11356 78.33324 6318 ft 249 kts 115°
2026-04-21 17:20 17.11149 78.35184 6404 ft 275 kts 77°
2026-04-21 17:20 17.11996 78.37749 6383 ft 296 kts 67°
2026-04-21 17:20 17.12491 78.39069 6097 ft 292 kts 66°
2026-04-21 17:20 17.13221 78.41010 5912 ft 281 kts 67°
2026-04-21 17:21 17.13933 78.42944 5901 ft 284 kts 67°
2026-04-21 17:21 17.14653 78.44839 5553 ft 285 kts 65°
2026-04-21 17:21 17.15393 78.46756 5156 ft 282 kts 68°
2026-04-21 17:21 17.16206 78.49264 4618 ft 266 kts 69°
2026-04-21 17:22 17.16589 78.50453 4355 ft 260 kts 69°
2026-04-21 17:22 17.17156 78.52209 3957 ft 252 kts 69°
2026-04-21 17:22 17.17711 78.53922 3620 ft 242 kts 69°
2026-04-21 17:22 17.18223 78.55512 3596 ft 220 kts 69°
2026-04-21 17:23 17.18684 78.56956 3613 ft 203 kts 69°
2026-04-21 17:23 17.19137 78.58368 3590 ft 204 kts 68°
2026-04-21 17:23 17.20005 78.60101 3597 ft 199 kts 50°
2026-04-21 17:23 17.20935 78.61132 3591 ft 198 kts 36°
2026-04-21 17:24 17.21687 78.61681 3588 ft 196 kts 26°
2026-04-21 17:24 17.22940 78.62238 3551 ft 195 kts 12°
2026-04-21 17:24 17.24262 78.62467 3194 ft 193 kts 359°
2026-04-21 17:24 17.25560 78.62340 3041 ft 184 kts 343°
2026-04-21 17:25 17.26448 78.61535 3081 ft 183 kts 283°
2026-04-21 17:25 17.26478 78.61119 3205 ft 176 kts 266°
2026-04-21 17:25 17.26021 78.59885 3388 ft 185 kts 241°
2026-04-21 17:25 17.25030 78.58401 3570 ft 188 kts 239°
2026-04-21 17:26 17.24556 78.57636 3588 ft 189 kts 239°
2026-04-21 17:26 17.23837 78.56484 3593 ft 188 kts 239°
2026-04-21 17:26 17.23185 78.55315 3591 ft 186 kts 248°
2026-04-21 17:26 17.22809 78.54019 3593 ft 185 kts 262°
2026-04-21 17:27 17.22763 78.52683 3467 ft 186 kts 276°
2026-04-21 17:27 17.22950 78.51369 3215 ft 182 kts 276°
2026-04-21 17:27 17.22968 78.50075 2969 ft 170 kts 270°
2026-04-21 17:27 17.22960 78.48945 2760 ft 144 kts 270°
2026-04-21 17:28 17.22948 78.48010 2593 ft 135 kts 270°
2026-04-21 17:28 17.22935 78.47001 2413 ft 135 kts 269°
2026-04-21 17:28 17.22922 78.46022 2232 ft 135 kts 269°
2026-04-21 17:28 17.22921 78.45042 2072 ft 133 kts 269°
2026-04-21 17:29 17.22901 78.44199 2045 ft 86 kts 269°
2026-04-21 17:29 17.22895 78.43789 2036 ft 35 kts 269°
2026-04-21 17:29 17.22887 78.43532 2026 ft 43 kts 269°
2026-04-21 17:29 17.22949 78.43342 2020 ft 18 kts 348°
2026-04-21 17:30 17.23102 78.43289 2020 ft 35 kts 338°
2026-04-21 17:30 17.23227 78.43227 2018 ft 26 kts 331°
2026-04-21 17:30 17.23343 78.43164 2017 ft 9 kts 350°
2026-04-21 17:30 17.23347 78.43163 2017 ft 0 kts 353°
2026-04-21 17:31 17.23366 78.43161 2016 ft 10 kts 355°
2026-04-21 17:31 17.23409 78.43160 2014 ft 5 kts 359°
2026-04-21 17:31 17.23418 78.43160 2014 ft 0 kts